Location: Stigler
(35.2540°N, 95.1230°W)
Time: 17:31:56
(UTC-05:00)

Daily predictions for brighter satellites

Satellite Brightness Start Highest point End
(mag) Time Altitude Azimuth Time Altitude Azimuth Time Altitude Azimuth
Cosmos 1818 3.7 20:42:08 10° S 20:47:23 54° ESE 20:52:42 10° NE
RESURS DK-1 2.4 20:45:01 10° SSW 20:49:08 87° ESE 20:53:17 10° NNE
Cosmos 405 Rocket 4.4 20:47:47 10° SE 20:50:01 15° E 20:52:16 10° NE
Cosmos 1544 Rocket 4.2 20:47:04 10° NNE 20:51:04 36° E 20:55:01 10° SSE
Okean 1 3.5 20:48:34 10° S 20:52:24 50° E 20:56:15 10° NNE
NOSS 2-2 (D) 3.9 20:49:07 10° S 20:52:46 37° ESE 20:56:40 10° NE
Resurs 01 Rocket 1.7 20:49:01 10° SSE 20:53:28 90° NE 20:57:55 10° NNW
Cosmos 773 Rocket 4.1 20:53:14 10° S 20:58:15 55° ESE 21:03:16 10° NNE
Cosmos 1975 3.5 20:55:12 10° N 20:59:01 38° E 21:02:49 10° SSE
Cosmos 1943 Rocket 2.3 20:55:43 10° NNW 21:01:16 61° ENE 21:06:44 10° SSE
CENTAUR R/B 3.9 20:54:17 10° NNW 21:01:36 38° NE 21:09:17 10° ESE
NOSS 3-2 (A) 4.3 20:55:04 10° NW 21:02:44 73° WSW 21:10:55 10° SSE
Cosmos 1500 3.4 21:01:27 10° N 21:05:09 52° E 21:08:48 10° SSE
Cosmos 292 Rocket 3.8 21:04:27 10° SSW 21:09:18 88° WNW 21:14:08 10° NNE
NOSS 2-2 (C) 3.3 21:07:32 10° SSW 21:11:27 64° ESE 21:15:43 10° NE
Cosmos 1939 Rocket 3.4 21:08:06 10° SE 21:11:42 38° ENE 21:15:19 10° N
Spot 2 Rocket 3.9 21:07:45 10° S 21:12:45 66° WSW 21:17:46 10° NNW
Helios 1B rocket 2.4 21:08:44 10° NNE 21:12:50 61° ESE 21:16:54 10° S
COSMOS 2406 3.6 21:08:21 10° S 21:13:44 44° ESE 21:19:07 10° NE
SL-27 R/B 4.1 21:14:28 14° SE 21:16:02 17° E 21:18:29 10° NE
Cosmos 1455 Rocket 3.1 21:12:09 10° N 21:16:28 61° E 21:20:44 10° SSE
COSMOS 2455 2.9 21:10:58 10° NNW 21:16:58 67° ENE 21:22:27 12° SE
Cosmos 1680 Rocket 3.9 21:16:14 10° S 21:21:05 40° ESE 21:25:57 10° NNE
Meteor 1-12 Rocket 4.4 21:17:33 10° N 21:23:37 86° E 21:29:34 10° S
Cosmos 1346 3.8 21:23:24 19° SE 21:24:40 28° E 21:27:07 10° NNE
Cosmos 1743 3.2 21:26:31 10° N 21:30:14 42° E 21:32:37 19° SE
Envisat 3.0 21:29:40 10° S 21:34:44 83° WSW 21:39:51 10° NNW
Spot 1 4.2 21:31:12 10° SSE 21:35:50 87° WSW 21:40:15 10° NNW
ASTRO E2 3.0 21:32:11 10° WSW 21:36:02 48° S 21:38:11 23° ESE
Iridium 4 Rocket 4.4 21:31:40 10° NNW 21:36:34 52° W 21:41:53 10° SSW
ASTEX 1 3.8 21:36:30 19° SE 21:39:43 43° E 21:44:21 10° N
Tiangong 2 1.0 21:39:20 10° WSW 21:42:30 88° SE 21:45:36 10° ENE
Aureole 3 Rocket 3.9 21:40:35 10° S 21:47:54 79° E 21:53:03 10° N
Okean 1-7 Rocket 4.1 21:46:16 24° SE 21:48:23 40° E 21:52:34 10° NNE
Okean 2 4.4 21:50:04 25° ESE 21:50:32 26° E 21:53:56 10° NNE
Cosmos 1238 Rocket 4.2 21:46:05 12° SSE 21:52:04 58° E 21:58:35 10° NNE
USA 186 4.5 21:50:18 10° SW 21:52:33 17° W 21:54:48 10° NW
Aureole 1 Rocket 2.2 21:50:25 11° S 21:53:51 71° ESE 21:56:56 10° NNE
ISS -4.0 21:51:34 10° SW 21:54:51 76° SE 21:58:09 10° NE
Meteor 2-9 Rocket 4.4 21:51:42 10° N 21:57:02 50° E 21:59:46 27° SE
Meteor 2-4 Rocket 3.6 21:55:07 11° S 22:00:33 77° E 22:06:18 10° NNE
Cosmos 1666 2.6 21:56:58 10° N 22:00:42 68° E 22:01:55 39° SSE
DNEPR-1 R/B 4.2 21:58:58 10° NNW 22:03:03 43° ENE 22:04:38 31° ESE
CZ-4B DEB 4.3 22:04:05 17° SSW 22:05:47 29° W 22:08:27 10° NW
OAO 2 Rocket 3.2 22:02:04 10° W 22:07:02 85° S 22:10:00 25° E
Cosmos 1833 Rocket 4.5 22:11:23 14° E 22:11:23 14° E 22:13:04 10° ENE
Meteor 2-13 Rocket 4.4 22:05:55 10° N 22:12:00 82° W 22:16:10 21° S
USA 245 4.2 22:16:10 23° NNE 22:16:10 23° NNE 22:17:30 10° N
YAOGAN 6 3.6 22:16:33 26° SSW 22:18:00 40° W 22:21:19 10° NNW
Cosmos 1606 Rocket 4.3 22:14:42 10° NNE 22:18:41 35° E 22:18:50 35° E
Cosmos 2184 Rocket 4.2 22:12:55 10° N 22:19:15 71° W 22:23:44 20° S
Cosmos 2074 Rocket 4.3 22:13:09 10° NNW 22:19:21 67° W 22:23:57 19° S
YAOGAN 11 4.1 22:18:33 48° SE 22:19:29 63° ENE 22:23:45 10° N
Cosmos 1610 Rocket 4.4 22:16:56 10° N 22:23:14 86° E 22:26:25 31° S
ERS-1 Rocket 3.2 22:21:29 29° S 22:24:01 66° WSW 22:29:02 10° NNW
Cosmos 1656 Rocket 4.2 22:23:20 10° NNW 22:28:37 52° WSW 22:31:13 28° SSW
MetOp-A 4.1 22:26:30 36° S 22:28:46 83° WSW 22:34:09 10° NNW
Cosmos 1726 Rocket 4.2 22:25:35 10° N 22:29:29 38° ENE 22:29:29 38° ENE
GENESIS II 4.2 22:26:01 10° NNW 22:29:57 64° ENE 22:30:03 64° ENE
Meteor 1-23 Rocket 4.3 22:25:57 19° SSW 22:29:58 76° W 22:35:34 10° N
H-2A R/B 2.2 22:33:29 45° E 22:34:10 48° ENE 22:38:58 10° N
USA 267 4.0 22:29:47 10° ENE 22:34:03 30° E 22:34:03 30° E
Cosmos 2058 Rocket 4.0 22:32:14 10° NNE 22:35:51 33° ENE 22:35:51 33° ENE
Cosmos 1025 Rocket 3.5 22:35:25 33° SW 22:37:06 58° W 22:41:19 10° N
Intercosmos 24 3.6 22:33:59 10° N 22:37:49 79° W 22:37:49 79° W
MOS 1-B Rocket 4.0 22:36:34 36° S 22:38:58 75° WSW 22:45:07 10° NNW
Meteor 1-15 Rocket 4.1 22:36:48 10° N 22:42:25 89° E 22:43:57 50° S
DMSP B5D2-2 4.1 22:42:15 10° NNE 22:47:27 55° E 22:47:34 55° ESE
Cosmos 962 Rocket 4.4 22:42:12 10° N 22:48:28 76° E 22:50:03 52° SSE
Cosmos 1624 Rocket 3.9 22:45:27 10° NNW 22:50:44 68° ENE 22:51:17 63° ESE
CENTAUR R/B 3.6 22:44:48 10° NW 22:52:35 52° WSW 22:56:31 31° S
SL-08 RB Rocket 3.6 22:52:51 72° SW 22:53:07 76° WSW 22:57:36 10° NNW
ARGOS 3.4 22:55:04 45° SSW 22:56:30 61° WSW 23:01:53 10° NNW
Landsat 7 3.8 23:00:33 67° ENE 23:00:33 67° ENE 23:05:09 10° N
H-2A R/B 2.9 23:01:56 41° NE 23:01:56 41° NE 23:05:38 10° N
SPOT 5 3.3 23:02:19 45° WSW 23:02:35 45° W 23:06:44 10° NNW
Cosmos 2154 Rocket 4.4 22:56:37 10° NNW 23:02:50 59° W 23:05:15 37° SSW
SL-8 Rocket 4.0 23:00:48 10° N 23:07:00 64° E 23:07:42 60° ESE
Cosmos 2082 Rocket 2.2 23:09:49 61° E 23:09:49 61° E 23:14:57 10° NNE
Cosmos 2056 Rocket 3.3 23:04:17 10° NNW 23:09:28 86° WSW 23:09:30 86° SW
Cosmos 2278 3.9 23:04:47 10° NNW 23:10:25 57° ENE 23:10:40 57° ENE
Cosmos 2366 rocket 4.2 23:05:05 10° N 23:11:03 49° E 23:11:14 49° E
Terra 2.1 23:16:05 60° NNE 23:16:05 60° NNE 23:20:12 10° N
Tiangong 2 4.0 23:16:49 10° WNW 23:17:53 17° NW 23:17:53 17° NW
CZ-4B R/B 4.2 23:15:27 10° NNE 23:19:06 41° NE 23:19:06 41° NE
SPOT 1/Viking Rocket 4.2 23:24:55 43° WSW 23:25:19 44° W 23:30:14 10° NNW
Timation 2 Rocket 4.4 23:27:45 49° ENE 23:27:45 49° ENE 23:32:47 10° NNE
Cosmos 2369 3.6 23:23:18 10° NNW 23:28:55 81° NE 23:28:55 81° NE
ISS -0.5 23:29:53 10° WNW 23:31:41 14° NNW 23:33:29 10° N
Cosmos 1959 Rocket 4.4 23:31:26 10° N 23:37:49 86° W 23:38:07 82° SSW
SL-08 R/B 4.3 23:31:59 10° N 23:38:03 83° ENE 23:38:03 83° ENE
Cosmos 1697 Rocket 3.3 23:33:11 10° N 23:38:08 46° NE 23:38:08 46° NE
Cosmos 839 Rocket 4.3 23:33:40 10° NNW 23:40:26 80° WSW 23:41:31 67° S
Cosmos 1452 Rocket 3.9 23:36:29 10° NNW 23:40:54 60° NNE 23:40:54 60° NNE
Cosmos 2228 4.5 23:40:51 10° NNW 23:43:46 34° NW 23:43:46 34° NW
Cosmos 2218 Rocket 4.0 23:41:11 10° N 23:47:19 72° W 23:47:26 72° WSW
Cosmos 1833 Rocket 3.1 23:53:01 57° WNW 23:53:08 57° WNW 23:58:41 10° NNE
